CW5761 Weather Reports


time (UTC)temp
C
wind
direction
speed
KPH
gust
KPH
rain 1hr
cm
rain 24hr
cm
rain mn
cm
humidity
%
barometer
mb
20260506202004 18 5 0.0 0.0 0.00 0.00 0.38 88 1006.6
20260506201004 18 70 0.0 0.0 0.00 0.00 0.38 89 1006.7
20260506200209 18 92 0.0 0.0 0.00 0.00 0.38 90 1006.7
20260506195005 17 90 0.0 0.0 0.00 0.00 0.38 91 1006.8
20260506194004 17 65 0.0 0.0 0.00 0.00 0.38 92 1007.2
20260506193005 17 73 0.0 0.0 0.00 0.00 0.38 93 1007.2
20260506191005 17 74 0.0 0.0 0.00 0.00 0.38 93 1007.3
20260506190120 17 75 0.0 0.0 0.00 0.00 0.38 93 1007.3
20260506185004 17 74 0.0 0.0 0.00 0.00 0.38 93 1007.6
20260506183005 17 89 0.0 0.0 0.00 0.00 0.38 93 1007.4
20260506182004 17 89 0.0 0.0 0.00 0.00 0.38 92 1007.6
20260506181004 17 81 0.0 0.0 0.00 0.00 0.38 92 1007.7
20260506180110 17 18 0.0 0.0 0.00 0.00 0.38 93 1007.7
20260506175004 17 97 0.0 0.0 0.00 0.00 0.38 93 1007.7
20260506173004 17 106 0.0 0.0 0.00 0.00 0.38 93 1007.8
20260506172515 17 107 1.6 0.0 0.00 0.00 0.38 93 1007.9
20260506165009 17 103 0.0 0.0 0.00 0.00 0.38 95 1007.9
20260506164004 17 103 0.0 0.0 0.00 0.00 0.38 95 1007.9
20260506163004 17 89 0.0 0.0 0.00 0.00 0.38 94 1007.9
20260506161010 17 84 0.0 0.0 0.00 0.00 0.33 93 1009.2
20260506160154 17 104 0.0 0.0 0.00 0.00 0.30 93 1009.2
20260506155010 17 104 0.0 0.0 0.00 0.00 0.25 92 1009.3
20260506154004 17 104 0.0 0.0 0.00 0.00 0.20 91 1009.4
20260506153005 17 105 0.0 0.0 0.00 0.00 0.15 91 1009.4
20260506151004 18 35 0.0 0.0 0.00 0.00 0.10 90 1008.9
20260506145005 18 35 0.0 0.0 0.00 0.00 0.05 86 1009.2
20260506144010 18 35 0.0 0.0 0.00 0.00 0.03 83 1009.3
20260506143005 19 19 0.0 0.0 0.00 0.00 0.00 80 1009.3
20260506142004 20 56 0.0 0.0 0.00 0.00 0.00 77 1009.2
20260506141005 20 117 0.0 0.0 0.00 0.00 0.00 74 1008.8
20260506140145 20 104 0.0 0.0 0.00 0.00 0.00 74 1008.8
20260506134600 20 63 0.0 0.0 0.00 0.00 0.00 76 1008.9
20260506125004 19 80 0.0 0.0 0.00 0.00 0.00 76 1009.2
20260506124004 18 17 0.0 0.0 0.00 0.00 0.00 78 1009.2
20260506123009 18 115 0.0 0.0 0.00 0.00 0.00 78 1009.2
20260506122004 18 105 0.0 0.0 0.00 0.00 0.00 78 1009.1
20260506121005 18 128 0.0 0.0 0.00 0.00 0.00 79 1009.1
20260506120315 18 98 0.0 0.0 0.00 0.00 0.00 79 1009.1
20260506115009 18 111 0.0 0.0 0.00 0.00 0.00 79 1009.1
20260506112010 18 98 0.0 0.0 0.00 0.00 0.00 80 1009.2
20260506111004 18 101 0.0 0.0 0.00 0.00 0.00 80 1008.8
20260506110214 18 115 0.0 0.0 0.00 0.00 0.00 80 1008.8
20260506105004 18 109 0.0 0.0 0.00 0.00 0.00 80 1008.8
20260506103004 18 103 0.0 0.0 0.00 0.00 0.00 81 1008.7
20260506102009 18 104 0.0 0.0 0.00 0.00 0.00 81 1008.7
20260506101009 18 103 0.0 0.0 0.00 0.00 0.00 80 1008.7
20260506100004 18 96 0.0 0.0 0.00 0.00 0.00 80 1008.7
20260506094005 18 107 0.0 0.0 0.00 0.00 0.00 80 1008.6
20260506093005 18 106 0.0 0.0 0.00 0.00 0.00 80 1008.6
20260506092005 18 82 0.0 0.0 0.00 0.00 0.00 80 1008.6
20260506091005 18 84 0.0 0.0 0.00 0.00 0.00 80 1008.7
20260506090309 18 84 0.0 0.0 0.00 0.00 0.00 80 1008.7
20260506085009 18 86 0.0 0.0 0.00 0.00 0.00 81 1008.8
20260506084004 18 350 9.7 0.0 0.00 0.00 0.00 81 1008.8
20260506082004 18 97 0.0 0.0 0.00 0.00 0.00 80 1008.9
20260506081004 18 98 0.0 0.0 0.00 0.00 0.00 80 1008.8
20260506072009 19 105 0.0 0.0 0.00 0.00 0.00 75 1009.0
20260506071005 19 115 0.0 0.0 0.00 0.00 0.00 75 1008.9
20260506051004 20 79 0.0 0.0 0.00 0.00 0.00 70 1009.8
20260506045009 20 78 0.0 0.0 0.00 0.00 0.00 68 1009.8
20260506044008 20 78 0.0 0.0 0.00 0.00 0.00 68 1009.7
20260506041814 20 77 0.0 0.0 0.00 0.00 0.00 67 1009.7
20260506035004 20 39 0.0 0.0 0.00 0.00 0.00 66 1009.6
20260506034005 20 115 0.0 0.0 0.00 0.00 0.00 66 1009.6
20260506033004 20 119 0.0 0.0 0.00 0.00 0.00 65 1009.6
20260506032004 21 121 0.0 0.0 0.00 0.00 0.00 65 1009.6
20260506031004 21 101 0.0 0.0 0.00 0.00 0.00 65 1009.6
20260506030159 21 103 0.0 0.0 0.00 0.00 0.00 64 1009.6
20260506025004 21 109 0.0 0.0 0.00 0.00 0.00 63 1009.7
20260506024004 21 86 0.0 0.0 0.00 0.00 0.00 62 1009.7
20260506023005 21 110 1.6 0.0 0.00 0.00 0.00 60 1009.7
20260506022004 22 110 0.0 0.0 0.00 0.00 0.00 58 1009.7
20260506021004 22 127 0.0 0.0 0.00 0.00 0.00 56 1009.7
20260506020005 22 111 0.0 0.0 0.00 0.00 0.00 54 1009.7
20260506015010 23 123 4.8 0.0 0.00 0.00 0.00 52 1009.6
20260506014005 23 184 0.0 0.0 0.00 0.00 0.00 50 1009.2
20260506013010 23 98 3.2 0.0 0.00 0.00 0.00 50 1009.2
20260506012009 23 153 0.0 0.0 0.00 0.00 0.00 50 1009.2
20260506011004 23 105 0.0 0.0 0.00 0.00 0.00 50 1009.1
20260506005004 23 95 6.4 0.0 0.00 0.00 0.00 48 1009.1
20260506004004 24 111 0.0 0.0 0.00 0.00 0.00 48 1008.7
20260506002004 24 109 0.0 0.0 0.00 0.00 0.00 49 1008.7
20260506001004 24 92 0.0 0.0 0.00 0.00 0.00 49 1008.7
20260505235004 25 105 0.0 0.0 0.00 0.00 0.00 47 1008.4
20260505232825 25 92 0.0 0.0 0.00 0.00 0.00 46 1008.2
20260505225008 26 103 0.0 0.0 0.00 0.00 0.00 40 1008.2
20260505224004 26 198 0.0 0.0 0.00 0.00 0.00 39 1008.0
20260505222005 26 86 0.0 0.0 0.00 0.00 0.00 39 1008.1
20260505221009 26 85 0.0 0.0 0.00 0.00 0.00 39 1007.9
20260505220005 26 5 9.7 0.0 0.00 0.00 0.00 37 1007.9
20260505215004 27 98 0.0 0.0 0.00 0.00 0.00 36 1007.7
20260505213004 27 136 0.0 0.0 0.00 0.00 0.00 37 1007.7
20260505212004 27 34 1.6 0.0 0.00 0.00 0.00 37 1007.7
20260505211005 27 293 0.0 0.0 0.00 0.00 0.00 36 1007.7
20260505210005 27 5 1.6 0.0 0.00 0.00 0.00 36 1007.7
20260505205005 27 171 6.4 0.0 0.00 0.00 0.00 36 1007.7
20260505204004 27 323 0.0 0.0 0.00 0.00 0.00 36 1007.7
20260505203005 27 275 0.0 0.0 0.00 0.00 0.00 33 1007.7